Weather History for Little Rock AFB, AR

Change the Weather History Date:

Thursday, June 13, 2013

  Actual Average Record
Temperature  
Mean Temperature 86 °F -  
Max Temperature 96 °F 88 °F 102 °F (1998)
Min Temperature 75 °F 65 °F 50 °F (1985)
Cooling Degree Days 20    
Growing Degree Days 36 (Base 50)    
Moisture  
Dew Point 72 °F    
Average Humidity 66    
Maximum Humidity 89    
Minimum Humidity 48    
Precipitation  
Precipitation 0.00 in - - ()
Sea Level Pressure  
Sea Level Pressure 29.94 in    
Wind  
Wind Speed 8 mph (West)    
Max Wind Speed 16 mph    
Max Gust Speed 23 mph    
Visibility 10 miles    
Events      
Averages and records for this station are not official NWS values.
T = Trace of Precipitation, MM = Missing Value Source: NWS Daily Summary

Daily Weather History Graph

Daily Weather History Graph

Search for Another Location

Airport:

Trip Planner

Search our weather history database for the weather conditions in past years. The results will help you decide how hot, cold, wet, or windy it might be!

Date:

Astronomy

Jun. 13, 2013 Rise Set
Actual Time 5:54 AM CDT 8:23 PM CDT
Civil Twilight 5:24 AM CDT 8:52 PM CDT
Nautical Twilight 4:48 AM CDT 9:29 PM CDT
Astronomical Twilight 4:07 AM CDT 10:09 PM CDT
Moon 10:22 AM CDT (6/13) 11:40 PM CDT (6/13)
Length of Visible Light 15h 28m
Length of Day
14h 29m
Waxing Crescent, 22% of the Moon is Illuminated
Jun 13
Waxing Crescent
Jun 16
First Quarter
Jun 23
Full
Jun 29
Last Quarter
Jul 8
New

Hourly Weather History & Observations

Time (CDT) Temp. Heat Index Dew Point Humidity Pressure Visibility Wind Dir Wind Speed Gust Speed Precip Events Conditions
12:58 AM 79.7 °F - 72.9 °F 80% 29.95 in 10.0 mi WSW 8.1 mph - N/A   Clear
1:58 AM 77.5 °F - 72.5 °F 84% 29.95 in 10.0 mi SW 8.1 mph - N/A   Clear
2:58 AM 76.1 °F - 71.8 °F 86% 29.95 in 10.0 mi WSW 5.8 mph - N/A   Clear
3:58 AM 75.7 °F - 71.8 °F 87% 29.95 in 10.0 mi West 4.6 mph - N/A   Clear
4:58 AM 75.7 °F - 72.0 °F 88% 29.95 in 10.0 mi West 4.6 mph - N/A   Clear
5:58 AM 75.6 °F - 72.0 °F 89% 29.96 in 10.0 mi WSW 5.8 mph - N/A   Clear
6:58 AM 77.4 °F - 72.5 °F 85% 29.97 in 10.0 mi SW 8.1 mph - N/A   Clear
7:58 AM 81.0 °F 85.6 °F 72.7 °F 76% 29.98 in 10.0 mi WSW 9.2 mph - N/A   Clear
8:58 AM 84.4 °F 90.6 °F 72.7 °F 68% 29.98 in 10.0 mi WSW 9.2 mph - N/A   Clear
9:58 AM 87.6 °F 94.8 °F 72.9 °F 61% 29.98 in 10.0 mi West 12.7 mph - N/A   Clear
10:58 AM 89.2 °F 96.9 °F 72.9 °F 58% 29.97 in 10.0 mi West 12.7 mph 23.0 mph N/A   Clear
11:58 AM 91.4 °F 100.7 °F 73.9 °F 56% 29.96 in 10.0 mi West 15.0 mph - N/A   Clear
12:58 PM 93.0 °F 102.6 °F 73.8 °F 53% 29.95 in 10.0 mi West 15.0 mph 23.0 mph N/A   Clear
1:58 PM 95.0 °F 103.8 °F 72.5 °F 48% 29.94 in 10.0 mi WNW 16.1 mph 20.7 mph N/A   Clear
2:58 PM 95.7 °F 106.2 °F 73.6 °F 49% 29.92 in 10.0 mi WNW 10.4 mph - N/A   Clear
3:58 PM 95.5 °F 106.5 °F 74.3 °F 50% 29.91 in 10.0 mi West 10.4 mph - N/A   Partly Cloudy
4:58 PM 96.3 °F 108.3 °F 74.8 °F 50% 29.89 in 10.0 mi West 8.1 mph - N/A   Mostly Cloudy
5:58 PM 94.3 °F 107.8 °F 76.3 °F 56% 29.88 in 10.0 mi North 4.6 mph - N/A   Mostly Cloudy
6:58 PM 90.0 °F 96.9 °F 72.0 °F 55% 29.89 in 10.0 mi NNE 6.9 mph - N/A   Mostly Cloudy
7:58 PM 86.5 °F 90.7 °F 69.1 °F 56% 29.92 in 10.0 mi NNE 5.8 mph - N/A   Mostly Cloudy
8:58 PM 84.0 °F 87.6 °F 68.9 °F 60% 29.92 in 10.0 mi ENE 5.8 mph - N/A   Mostly Cloudy
9:58 PM 82.9 °F 86.3 °F 68.5 °F 62% 29.94 in 10.0 mi ENE 4.6 mph - N/A   Partly Cloudy
10:58 PM 80.2 °F 83.1 °F 68.7 °F 68% 29.95 in 10.0 mi ENE 3.5 mph - N/A   Mostly Cloudy
11:58 PM 79.2 °F - 68.0 °F 69% 29.97 in 10.0 mi ENE 11.5 mph 17.3 mph N/A   Partly Cloudy